Location: Fishcreek Rd Observing Site
(41.1865°N, 81.4271°W)
Time: 19:00:38
(UTC-05:00)

Iridium 75 - Visible Passes

Search period start: 05 March 2015 00:00
Search period end: 15 March 2015 01:00
Orbit: 776 x 779 km, 86.4° (Epoch: 05 March)

Date Brightness Start Highest point End Pass type
(mag) Time Alt. Az. Time Alt. Az. Time Alt. Az.
05 Mar 8.1 03:40:10 21° NNE 03:40:10 21° NNE 03:41:54 10° NNE visible
05 Mar 8.1 05:20:38 12° NW 05:20:38 12° NW 05:21:15 10° NW visible
06 Mar 8.6 03:06:52 15° NNE 03:06:52 15° NNE 03:07:57 10° NNE visible
06 Mar 7.9 04:47:21 16° NNW 04:47:21 16° NNW 04:48:40 10° NNW visible
07 Mar 7.9 04:14:02 19° NNW 04:14:02 19° NNW 04:15:33 10° N visible
08 Mar 8.2 04:40:43 19° N 04:40:43 19° N 04:42:06 10° N visible
09 Mar 8.6 04:07:22 15° NNE 04:07:22 15° NNE 04:08:21 10° NNE visible
09 Mar 8.2 05:47:50 12° NNW 05:47:50 12° NNW 05:48:18 10° NNW visible
10 Mar 9.0 03:34:00 11° NNE 03:34:00 11° NNE 03:34:14 10° NNE visible
10 Mar 8.2 05:14:29 15° NNW 05:14:29 15° NNW 05:15:27 10° NNW visible
11 Mar 8.3 04:41:07 16° N 04:41:07 16° N 04:42:11 10° N visible
12 Mar 8.5 04:07:43 15° N 04:07:43 15° N 04:08:36 10° N visible
13 Mar 8.9 03:34:20 12° NNE 03:34:20 12° NNE 03:34:44 10° NNE visible
13 Mar 8.4 05:14:48 12° NNW 05:14:48 12° NNW 05:15:12 10° NNW visible
14 Mar 8.4 04:41:24 14° NNW 04:41:24 14° NNW 04:42:09 10° N visible
